Regional Weather Roundup
Issued by NWS

Home | Current Version | Previous Version | Text Only | Print | Product List | Glossary Off
Versions: 1 2 3 4 5 6 7 8 9 10 11 12 13 14 15 16 17 18 19 20 21 22 23 24 25 26 27 28 29 30 31 32 33 34 35 36 37 38 39 40 41 42 43 44 45 46 47 48 49 50

000
ASUS44 KMEG 202010
RWRTN
TENNESSEE HOURLY STATE WEATHER ROUNDUP
NATIONAL WEATHER SERVICE MEMPHIS TN
200 PM CST TUE FEB 20 2018

TNZ002-004-019-021-049-052-054-088>092-202100-
WEST TENNESSEE

CITY           SKY/WX    TMP DP  RH WIND       PRES   REMARKS
MEMPHIS INTL   CLOUDY    77  62  59 S15       30.07F
NWS MEMPHIS      N/A     75 N/A N/A MISG        N/A
JACKSON        PTSUNNY   76  63  64 S20G32    30.11F
DYERSBURG      FAIR      77  61  57 S10G28    30.08F
SOMERVILLE     PTSUNNY   75  63  64 S13G22    30.09F
COVINGTON      PTSUNNY   75  61  60 S15G23    30.08F
UNION CITY     CLOUDY    75  59  57 S18       30.08F
BOLIVAR        PTSUNNY   75  63  64 S14G26    30.11F
PARIS          PTSUNNY   75  61  60 S13G21    30.10F
HUNTINGDON     CLOUDY    75  61  60 S18G25    30.11F
LEXINGTON      CLOUDY    75  61  60 S17G26    30.14F
SELMER         CLOUDY    73  63  68 S14G24    30.14F
SAVANNAH       CLOUDY    73  63  68 S16G25    30.16F
$$

TNZ008-025-027-028-033-062-065-066-202100-
NORTH MIDDLE TENNESSEE

CITY           SKY/WX    TMP DP  RH WIND       PRES   REMARKS
NASHVILLE      CLOUDY    79  58  48 S20G30    30.17F
PORTLAND       PTSUNNY   77  59  53 SW17G28   30.16F
CLARKSVILLE    CLOUDY    74  56  53 S18G35    30.14S
SMYRNA         CLOUDY    78  60  53 S14G23    30.18F
COOKEVILLE     PTSUNNY   77  57  50 S20G30    30.22S
GALLATIN       CLOUDY    79  59  50 S12G25    30.19F
CROSSVILLE     PTSUNNY   69  58  67 S12G21    30.28F
$$

TNZ061-075-076-078-094-096-097-202100-
SOUTH MIDDLE TENNESSEE

CITY           SKY/WX    TMP DP  RH WIND       PRES   REMARKS
FAYETTEVILLE   PTSUNNY   75  63  64 S14G21    30.20F
TULLAHOMA      CLOUDY    75  59  57 S14       30.21F
WINCHESTER     CLOUDY    75  61  60 S15       30.23F
MCMINNVILLE    PTSUNNY   77  59  53 S10G18    30.21F
COLUMBIA       PTSUNNY   75  61  60 S17G29    30.15F
SHELBYVILLE    CLOUDY    77  59  53 S16       30.19F
$$

TNZ017-018-042-046-047-202100-
NORTHEAST TENNESSEE

CITY           SKY/WX    TMP DP  RH WIND       PRES   REMARKS
TRI CITIES     FAIR      78  53  41 W10       30.28F
ELIZABETHTON   FAIR      79  50  36 NW5       30.28F
$$

TNZ012-013-036-069-073-074-202100-
CENTRAL EAST TENNESSEE

CITY           SKY/WX    TMP DP  RH WIND       PRES   REMARKS
KNOXVILLE      FAIR      78  55  44 SW24G32   30.26F
OAK RIDGE      CLOUDY    75  60  59 SW7G17    30.27F
DOWNTOWN KNOXV SUNNY     79  55  44 W14G25    30.26F
GATLINBURG     SUNNY     82  50  32 SW9G17    30.25F
MORRISTOWN     SUNNY     79  52  38 VRB7      30.26F
JACKSBORO      CLOUDY    75  57  53 SW12      30.29F
$$

TNZ083-085-099-202100-
SOUTHEAST TENNESSEE

CITY           SKY/WX    TMP DP  RH WIND       PRES   REMARKS
CHATTANOOGA    PTSUNNY   73  60  63 S14G22    30.27F
$$

SKY/WX REPORTED AS FAIR MEANS FEW OR NO CLOUDS BELOW
12 THOUSAND FEET.




USA.gov is the U.S. government's official web portal to all federal, state and local government web resources and services.